OZ1IEP-5 Weather Reports


Display with metric or nautical units.
time (UTC)temp
F
wind
direction
speed
MPH
gust
MPH
rain 1hr
in
rain 24hr
in
rain mn
in
humidity
%
barometer
mb
20260902075005 62 216 0.0 10.0 0.00 0.02 0.00 91 1013.3
20260902074006 62 213 0.0 7.0 0.00 0.02 0.00 92 1013.1
20260902073009 62 182 0.0 5.0 0.00 0.02 0.00 92 1013.1
20260902072005 61 179 0.0 3.0 0.00 0.02 0.00 92 1013.1
20260902071006 61 187 0.0 2.0 0.00 0.02 0.00 92 1013.1
20260902070008 61 182 0.0 3.0 0.00 0.02 0.00 93 1013.1
20260902065006 60 128 0.0 3.0 0.00 0.02 0.00 93 1013.1
20260902064005 60 164 0.0 6.0 0.00 0.02 0.00 93 1013.2
20260902063008 60 184 0.0 7.0 0.00 0.02 0.00 93 1013.1
20260902062006 60 185 0.0 3.0 0.00 0.02 0.00 93 1013.2
20260902061005 59 199 0.0 6.0 0.00 0.02 0.00 93 1013.1
20260902060008 59 213 0.0 3.0 0.00 0.02 0.00 93 1013.1
20260902055006 59 204 0.0 12.0 0.00 0.02 0.00 93 1013.1
20260902054005 59 191 0.0 13.0 0.00 0.02 0.00 93 1013.1
20260902053009 59 222 0.0 5.0 0.00 0.02 0.00 93 1013.0
20260902052006 58 221 1.0 6.0 0.00 0.02 0.00 93 1013.0
20260902051005 58 169 0.0 3.0 0.00 0.02 0.00 93 1013.0
20260902050009 58 217 0.0 2.0 0.00 0.02 0.00 93 1013.1
20260902045006 58 192 0.0 7.0 0.00 0.02 0.00 93 1013.0
20260902044006 58 207 0.0 6.0 0.00 0.02 0.00 93 1013.0
20260902043008 58 181 0.0 3.0 0.00 0.02 0.00 93 1013.1
20260902042006 57 150 0.0 2.0 0.00 0.02 0.00 92 1013.1
20260902041006 57 199 0.0 5.0 0.00 0.02 0.00 92 1013.1
20260902040010 57 162 0.0 3.0 0.00 0.02 0.00 93 1013.0
20260902035006 57 185 0.0 1.0 0.00 0.02 0.00 92 1013.1
20260902034006 56 172 0.0 1.0 0.00 0.02 0.00 92 1013.2
20260902033010 56 175 0.0 0.0 0.00 0.02 0.00 92 1013.3
20260902032006 55 191 0.0 1.0 0.00 0.02 0.00 92 1013.4
20260902031007 55 188 0.0 0.0 0.00 0.02 0.00 91 1013.5
20260902030008 55 181 0.0 2.0 0.00 0.02 0.00 91 1013.5
20260902025006 55 206 0.0 2.0 0.00 0.04 0.00 91 1013.5
20260902024006 55 210 0.0 2.0 0.00 0.04 0.00 91 1013.5
20260902023008 55 184 0.0 0.0 0.00 0.04 0.00 90 1013.4
20260902022005 56 222 0.0 1.0 0.00 0.04 0.00 90 1013.4
20260902021005 56 185 0.0 0.0 0.00 0.04 0.00 89 1013.4
20260902020008 56 206 0.0 2.0 0.00 0.04 0.00 89 1013.3
20260902015006 56 224 0.0 0.0 0.00 0.04 0.00 89 1013.3
20260902014006 57 189 0.0 0.0 0.00 0.04 0.00 89 1013.4
20260902013009 57 198 0.0 0.0 0.00 0.04 0.00 89 1013.4
20260902012006 58 230 0.0 3.0 0.00 0.04 0.00 89 1013.4
20260902011006 58 208 0.0 3.0 0.00 0.04 0.00 89 1013.4
20260902010009 58 224 0.0 3.0 0.00 0.04 0.00 89 1013.4
20260902005006 58 229 0.0 3.0 0.00 0.04 0.00 89 1013.4
20260902004006 58 227 0.0 5.0 0.00 0.04 0.00 89 1013.5
20260902003009 58 244 0.0 3.0 0.00 0.04 0.00 89 1013.5
20260902002005 58 230 0.0 3.0 0.00 0.04 0.00 89 1013.4
20260902001006 58 226 0.0 2.0 0.00 0.04 0.00 89 1013.5
20260902000008 58 226 0.0 3.0 0.00 0.04 0.00 89 1013.5
20260901235006 58 302 0.0 1.0 0.00 0.04 0.00 89 1013.6
20260901234006 58 300 0.0 6.0 0.00 0.04 0.00 89 1013.6
20260901233008 58 265 0.0 0.0 0.00 0.04 0.00 88 1013.6
20260901232006 58 253 0.0 5.0 0.00 0.04 0.00 88 1013.6
20260901231006 59 265 0.0 5.0 0.00 0.04 0.00 89 1013.6
20260901230008 59 276 0.0 2.0 0.00 0.04 0.00 89 1013.6
20260901225006 60 219 0.0 3.0 0.00 0.04 0.00 90 1013.4
20260901224006 60 222 0.0 6.0 0.02 0.04 0.00 90 1013.3
20260901223009 60 243 0.0 5.0 0.02 0.04 0.00 90 1013.2
20260901222006 60 201 0.0 7.0 0.02 0.04 0.00 90 1013.3
20260901221006 60 225 0.0 7.0 0.02 0.04 0.00 90 1013.1
20260901220008 61 214 0.0 2.0 0.02 0.04 0.00 89 1013.1
20260901215006 61 215 0.0 2.0 0.02 0.04 0.04 89 1013.2
20260901214006 61 237 0.0 1.0 0.01 0.03 0.03 89 1013.2
20260901213009 61 226 0.0 1.0 0.00 0.02 0.02 89 1013.0
20260901212006 62 219 0.0 1.0 0.00 0.02 0.02 89 1013.0
20260901211006 62 240 0.0 1.0 0.00 0.02 0.02 89 1013.0
20260901210009 62 247 0.0 0.0 0.00 0.02 0.02 89 1013.0
20260901205006 62 231 0.0 1.0 0.00 0.02 0.02 88 1013.0
20260901204006 61 213 0.0 0.0 0.00 0.02 0.02 87 1013.0
20260901203009 61 288 0.0 0.0 0.00 0.02 0.02 87 1013.0
20260901202006 61 293 0.0 1.0 0.00 0.02 0.02 87 1012.9
20260901201005 61 303 0.0 1.0 0.00 0.02 0.02 87 1012.9
20260901200009 61 304 0.0 0.0 0.00 0.02 0.02 88 1012.8
20260901195006 61 290 0.0 3.0 0.00 0.02 0.02 87 1012.6
20260901194006 62 307 0.0 0.0 0.00 0.02 0.02 88 1012.6
20260901193009 62 225 0.0 0.0 0.00 0.02 0.02 88 1012.5
20260901192006 63 243 0.0 0.0 0.00 0.02 0.02 88 1012.5
20260901191006 63 257 0.0 0.0 0.00 0.02 0.02 87 1012.5
20260901190020 63 237 0.0 2.0 0.00 0.02 0.02 87 1012.4
20260901185005 63 223 0.0 6.0 0.00 0.02 0.02 86 1012.3
20260901184005 63 243 0.0 5.0 0.00 0.02 0.02 85 1012.1
20260901183009 63 216 0.0 3.0 0.00 0.02 0.02 84 1012.0
20260901182006 64 228 0.0 9.0 0.00 0.02 0.02 83 1011.9
20260901181005 64 238 0.0 5.0 0.00 0.02 0.02 82 1011.9
20260901180008 64 221 0.0 3.0 0.00 0.02 0.02 81 1011.8
20260901175006 64 228 0.0 3.0 0.00 0.02 0.02 82 1011.8
20260901174007 65 234 0.0 2.0 0.00 0.02 0.02 82 1011.6
20260901173008 65 217 0.0 1.0 0.00 0.02 0.02 82 1011.5
20260901172006 65 226 0.0 3.0 0.00 0.02 0.02 81 1011.5
20260901171006 65 249 0.0 2.0 0.00 0.02 0.02 80 1011.5
20260901170008 66 217 0.0 3.0 0.00 0.02 0.02 79 1011.4
20260901165006 66 235 0.0 3.0 0.00 0.02 0.02 80 1011.4
20260901164005 66 224 0.0 2.0 0.00 0.02 0.02 80 1011.4
20260901163008 67 243 0.0 3.0 0.00 0.02 0.02 79 1011.4
20260901162005 67 238 0.0 3.0 0.00 0.02 0.02 80 1011.3
20260901161005 67 238 0.0 6.0 0.00 0.02 0.02 82 1011.3
20260901160008 66 227 0.0 7.0 0.00 0.02 0.02 82 1011.2
20260901155006 66 233 0.0 7.0 0.00 0.02 0.02 80 1011.1
20260901154005 66 249 0.0 7.0 0.00 0.02 0.02 78 1011.1
20260901153008 66 220 0.0 9.0 0.00 0.03 0.02 78 1011.0
20260901152006 67 190 0.0 5.0 0.00 0.07 0.02 78 1010.9
20260901151005 67 228 0.0 6.0 0.00 0.08 0.02 78 1010.9
20260901150008 68 211 0.0 6.0 0.00 0.09 0.02 79 1010.9
20260901145005 68 234 1.0 6.0 0.00 0.12 0.02 77 1010.9
20260901144005 69 228 0.0 9.0 0.00 0.12 0.02 78 1010.9
20260901143008 69 225 0.0 1.0 0.00 0.12 0.02 77 1010.9
20260901142006 69 239 0.0 5.0 0.00 0.12 0.02 76 1010.9
20260901141006 69 281 0.0 5.0 0.00 0.12 0.02 77 1010.9
20260901140008 69 305 0.0 3.0 0.00 0.12 0.02 77 1010.9
20260901135006 68 264 0.0 7.0 0.00 0.12 0.02 78 1010.9
20260901134005 68 283 0.0 3.0 0.00 0.12 0.02 77 1010.9
20260901133008 69 285 0.0 3.0 0.00 0.12 0.02 77 1010.9
20260901132006 68 313 0.0 3.0 0.00 0.12 0.02 79 1010.9
20260901131006 68 267 0.0 2.0 0.00 0.12 0.02 80 1010.9
20260901130008 68 292 0.0 1.0 0.00 0.12 0.02 79 1010.9
20260901125005 68 294 0.0 3.0 0.00 0.12 0.02 81 1010.9
20260901124006 67 230 0.0 0.0 0.00 0.12 0.02 82 1010.8
20260901123008 67 282 0.0 5.0 0.00 0.12 0.02 82 1010.7
20260901122006 67 308 1.0 6.0 0.00 0.12 0.02 82 1010.7
20260901121006 67 302 1.0 7.0 0.00 0.12 0.02 82 1010.8
20260901120009 67 295 1.0 6.0 0.00 0.12 0.02 83 1010.9
20260901115006 67 302 0.0 5.0 0.00 0.12 0.02 84 1010.9
20260901114005 67 275 0.0 5.0 0.00 0.12 0.02 84 1010.9
20260901113008 67 308 1.0 5.0 0.00 0.12 0.02 84 1010.8
20260901112005 66 301 0.0 6.0 0.00 0.12 0.02 86 1010.7
20260901111006 66 279 0.0 5.0 0.00 0.12 0.02 86 1010.7
20260901110009 65 298 0.0 1.0 0.00 0.12 0.02 86 1010.7
20260901105005 65 288 0.0 3.0 0.00 0.12 0.02 85 1010.6
20260901104006 66 287 0.0 5.0 0.00 0.13 0.02 86 1010.5
20260901103008 66 254 0.0 3.0 0.01 0.13 0.02 87 1010.4
20260901102005 65 275 0.0 3.0 0.01 0.13 0.02 86 1010.4
20260901101006 66 227 0.0 1.0 0.01 0.13 0.02 87 1010.4
20260901100008 65 239 0.0 1.0 0.01 0.14 0.02 87 1010.3
20260901095006 65 272 0.0 0.0 0.01 0.16 0.02 87 1010.2
20260901094005 65 279 0.0 1.0 0.01 0.25 0.02 88 1010.2
20260901093009 65 223 0.0 5.0 0.00 0.25 0.02 89 1010.0
20260901092006 65 282 0.0 6.0 0.00 0.25 0.02 90 1009.9
20260901091006 64 237 1.0 6.0 0.00 0.25 0.02 91 1009.8
20260901090009 64 220 0.0 7.0 0.00 0.25 0.02 92 1009.8
20260901085006 64 287 0.0 1.0 0.00 0.25 0.02 92 1009.8
20260901084006 64 285 0.0 5.0 0.00 0.25 0.02 93 1009.8
20260901083008 63 264 0.0 7.0 0.00 0.25 0.02 93 1009.5
20260901082006 62 306 2.0 7.0 0.00 0.25 0.02 93 1009.4
20260901081006 63 247 0.0 6.0 0.00 0.25 0.02 93 1009.3
20260901080008 62 301 5.0 12.0 0.00 0.25 0.02 93 1009.3